• In Latvia
  • List of Countries
  • For 7 days
  • Water Temperature
  • Satellite Maps
  • Weather Map
  • Weather Widgets
  • user-avatar
    Login

    Hourly Weather Biskira

    Today, 6 December, Tuesday

    Time Temperature Precipitation Wind Pressure Humidity
    00:00 +14°C° 0 mm 3 mps 755 mmHg 51%
    01:00 +14°C° 0 mm 3 mps 755 mmHg 51%
    02:00 +14°C° 0 mm 3 mps 755 mmHg 51%
    03:00 +14°C° 0 mm 3 mps 755 mmHg 51%
    04:00 +15°C° 0 mm 2 mps 755 mmHg 52%
    05:00 +15°C° 0 mm 2 mps 755 mmHg 53%
    06:00 +15°C° 0 mm 2 mps 755 mmHg 54%
    07:00 +16°C° 0 mm 2 mps 755 mmHg 50%
    08:00 +17°C° 0 mm 2 mps 755 mmHg 47%
    09:00 +18°C° 0 mm 2 mps 756 mmHg 44%
    10:00 +19°C° 0 mm 2 mps 755 mmHg 42%
    11:00 +20°C° 0 mm 2 mps 755 mmHg 40%
    12:00 +21°C° 0 mm 2 mps 755 mmHg 38%
    13:00 +21°C° 0 mm 2 mps 755 mmHg 39%
    14:00 +21°C° 0 mm 2 mps 755 mmHg 40%
    15:00 +21°C° 0 mm 2 mps 755 mmHg 41%
    16:00 +20°C° 0 mm 2 mps 755 mmHg 46%
    17:00 +18°C° 0 mm 2 mps 755 mmHg 52%
    18:00 +18°C° 0 mm 1 mps 755 mmHg 57%
    19:00 +18°C° 0 mm 1 mps 756 mmHg 59%
    20:00 +16°C° 0 mm 1 mps 756 mmHg 61%
    21:00 +16°C° 0 mm 2 mps 756 mmHg 63%
    22:00 +16°C° 0 mm 2 mps 756 mmHg 64%
    23:00 +16°C° 0 mm 2 mps 757 mmHg 64%

    Tomorrow, 7 December, Wednesday

    Time Temperature Precipitation Wind Pressure Humidity
    00:00 +16°C° 0 mm 2 mps 757 mmHg 65%
    01:00 +15°C° 0 mm 2 mps 757 mmHg 66%
    02:00 +15°C° 0 mm 2 mps 756 mmHg 67%
    03:00 +15°C° 0 mm 2 mps 756 mmHg 67%
    04:00 +15°C° 0.1 mm 2 mps 757 mmHg 68%
    05:00 +14°C° 0.1 mm 3 mps 757 mmHg 69%
    06:00 +14°C° 0.1 mm 3 mps 757 mmHg 70%
    07:00 +16°C° 0.1 mm 3 mps 757 mmHg 66%
    08:00 +17°C° 0.1 mm 3 mps 757 mmHg 62%
    09:00 +18°C° 0.1 mm 3 mps 757 mmHg 58%
    10:00 +19°C° 0.1 mm 3 mps 757 mmHg 55%
    11:00 +19°C° 0.1 mm 3 mps 757 mmHg 51%
    12:00 +20°C° 0.1 mm 3 mps 757 mmHg 48%
    13:00 +21°C° 0 mm 2 mps 757 mmHg 48%
    14:00 +21°C° 0 mm 2 mps 756 mmHg 48%
    15:00 +21°C° 0 mm 2 mps 756 mmHg 48%
    16:00 +20°C° 0 mm 2 mps 757 mmHg 51%
    17:00 +19°C° 0 mm 2 mps 757 mmHg 55%
    18:00 +19°C° 0 mm 1 mps 758 mmHg 59%
    19:00 +18°C° 0.2 mm 2 mps 758 mmHg 60%
    20:00 +18°C° 0.2 mm 2 mps 758 mmHg 62%
    21:00 +18°C° 0.2 mm 2 mps 759 mmHg 64%
    22:00 +17°C° 0.1 mm 2 mps 759 mmHg 66%
    23:00 +17°C° 0.1 mm 2 mps 759 mmHg 69%

    Day after tomorrow, 8 December, Thursday

    Time Temperature Precipitation Wind Pressure Humidity
    00:00 +17°C° 0.1 mm 2 mps 759 mmHg 72%
    01:00 +16°C° 0.1 mm 2 mps 759 mmHg 74%
    02:00 +16°C° 0.1 mm 2 mps 759 mmHg 75%
    03:00 +16°C° 0.1 mm 2 mps 759 mmHg 77%
    04:00 +16°C° 0.1 mm 2 mps 759 mmHg 78%
    05:00 +15°C° 0.1 mm 2 mps 759 mmHg 79%
    06:00 +15°C° 0.1 mm 2 mps 759 mmHg 80%
    07:00 +15°C° 0.3 mm 2 mps 759 mmHg 80%
    08:00 +16°C° 0.3 mm 2 mps 760 mmHg 79%
    09:00 +16°C° 0.3 mm 2 mps 760 mmHg 79%
    10:00 +17°C° 0.1 mm 2 mps 760 mmHg 75%
    11:00 +18°C° 0.1 mm 1 mps 760 mmHg 71%
    12:00 +19°C° 0.1 mm 1 mps 760 mmHg 67%
    13:00 +19°C° 0.1 mm 1 mps 759 mmHg 64%
    14:00 +20°C° 0.1 mm 1 mps 759 mmHg 61%
    15:00 +19°C° 0.1 mm 2 mps 759 mmHg 57%
    16:00 +18°C° 0 mm 2 mps 759 mmHg 60%
    17:00 +18°C° 0 mm 2 mps 760 mmHg 62%
    18:00 +17°C° 0 mm 2 mps 760 mmHg 65%
    19:00 +17°C° 0 mm 2 mps 760 mmHg 66%
    20:00 +16°C° 0 mm 2 mps 761 mmHg 66%
    21:00 +16°C° 0 mm 2 mps 761 mmHg 67%
    22:00 +16°C° 0 mm 2 mps 761 mmHg 68%
    23:00 +16°C° 0 mm 2 mps 761 mmHg 68%

    9 December, Friday

    Time Temperature Precipitation Wind Pressure Humidity
    00:00 +16°C° 0 mm 2 mps 761 mmHg 69%
    01:00 +15°C° 0 mm 2 mps 761 mmHg 69%
    02:00 +15°C° 0 mm 2 mps 761 mmHg 69%
    03:00 +15°C° 0 mm 2 mps 761 mmHg 69%
    04:00 +15°C° 0 mm 2 mps 761 mmHg 70%
    05:00 +15°C° 0 mm 2 mps 761 mmHg 70%
    06:00 +15°C° 0 mm 2 mps 762 mmHg 71%
    07:00 +16°C° 0 mm 2 mps 762 mmHg 66%
    08:00 +17°C° 0 mm 2 mps 762 mmHg 61%
    09:00 +18°C° 0 mm 2 mps 762 mmHg 56%
    10:00 +19°C° 0 mm 2 mps 762 mmHg 53%
    11:00 +20°C° 0 mm 2 mps 762 mmHg 49%
    12:00 +21°C° 0 mm 2 mps 761 mmHg 45%
    13:00 +21°C° 0 mm 2 mps 761 mmHg 44%
    14:00 +21°C° 0 mm 2 mps 761 mmHg 44%
    15:00 +21°C° 0 mm 2 mps 760 mmHg 43%
    16:00 +21°C° 0 mm 1 mps 761 mmHg 49%
    17:00 +19°C° 0 mm 1 mps 761 mmHg 54%
    18:00 +18°C° 0 mm 1 mps 761 mmHg 59%
    19:00 +18°C° 0 mm 1 mps 761 mmHg 60%
    20:00 +16°C° 0 mm 1 mps 762 mmHg 61%
    21:00 +16°C° 0 mm 1 mps 762 mmHg 62%
    22:00 +16°C° 0 mm 1 mps 762 mmHg 63%
    23:00 +15°C° 0 mm 1 mps 762 mmHg 64%

    10 December, Saturday

    Time Temperature Precipitation Wind Pressure Humidity
    00:00 +15°C° 0 mm 1 mps 762 mmHg 64%
    01:00 +15°C° 0 mm 1 mps 761 mmHg 64%
    02:00 +15°C° 0 mm 1 mps 761 mmHg 65%
    03:00 +15°C° 0 mm 1 mps 761 mmHg 65%
    04:00 +15°C° 0 mm 1 mps 761 mmHg 66%
    05:00 +14°C° 0 mm 1 mps 761 mmHg 67%
    06:00 +14°C° 0 mm 1 mps 761 mmHg 68%
    07:00 +15°C° 0 mm 1 mps 761 mmHg 63%
    08:00 +18°C° 0 mm 1 mps 761 mmHg 58%
    09:00 +19°C° 0 mm 1 mps 762 mmHg 52%
    10:00 +20°C° 0 mm 1 mps 761 mmHg 50%
    11:00 +21°C° 0 mm 1 mps 761 mmHg 49%
    12:00 +21°C° 0 mm 1 mps 760 mmHg 47%
    13:00 +22°C° 0 mm 1 mps 760 mmHg 46%
    14:00 +22°C° 0 mm 1 mps 760 mmHg 46%
    15:00 +21°C° 0 mm 2 mps 759 mmHg 45%
    16:00 +20°C° 0 mm 1 mps 760 mmHg 50%
    17:00 +19°C° 0 mm 1 mps 760 mmHg 55%
    18:00 +18°C° 0 mm 1 mps 760 mmHg 60%
    19:00 +16°C° 0 mm 1 mps 760 mmHg 61%
    20:00 +15°C° 0 mm 0 mps 760 mmHg 63%
    21:00 +15°C° 0 mm 0 mps 760 mmHg 64%
    22:00 +14°C° 0 mm 0 mps 760 mmHg 66%
    23:00 +14°C° 0 mm 0 mps 760 mmHg 67%

    11 December, Sunday

    Time Temperature Precipitation Wind Pressure Humidity
    00:00 +14°C° 0 mm 0 mps 760 mmHg 68%
    01:00 +13°C° 0 mm 0 mps 760 mmHg 69%
    02:00 +13°C° 0 mm 0 mps 759 mmHg 70%
    03:00 +13°C° 0 mm 0 mps 759 mmHg 71%
    04:00 +13°C° 0 mm 0 mps 759 mmHg 72%
    05:00 +12°C° 0 mm 0 mps 759 mmHg 73%
    06:00 +12°C° 0 mm 0 mps 759 mmHg 73%
    07:00 +14°C° 0 mm 0 mps 759 mmHg 67%
    08:00 +15°C° 0 mm 0 mps 759 mmHg 60%
    09:00 +17°C° 0 mm 0 mps 760 mmHg 53%
    10:00 +20°C° 0 mm 1 mps 759 mmHg 50%
    11:00 +20°C° 0 mm 1 mps 759 mmHg 47%
    12:00 +20°C° 0 mm 2 mps 758 mmHg 44%
    13:00 +20°C° 0 mm 2 mps 758 mmHg 43%
    14:00 +21°C° 0 mm 2 mps 758 mmHg 42%
    15:00 +21°C° 0 mm 2 mps 757 mmHg 42%
    16:00 +19°C° 0 mm 2 mps 757 mmHg 46%
    17:00 +18°C° 0 mm 2 mps 757 mmHg 51%
    18:00 +17°C° 0 mm 2 mps 757 mmHg 55%
    19:00 +16°C° 0 mm 1 mps 758 mmHg 56%
    20:00 +16°C° 0 mm 1 mps 758 mmHg 58%
    21:00 +16°C° 0 mm 1 mps 758 mmHg 59%
    22:00 +15°C° 0 mm 1 mps 758 mmHg 60%
    23:00 +15°C° 0 mm 1 mps 757 mmHg 61%
    Show more